Location: Newark
(35.8833°N, 14.5000°E)
Time: 15:39:43
(UTC+00:00)

Altair - Pass Details

Date: 28 November 2019
Orbit: 1502 x 1682 km, 47.2° (Epoch: 05 December)

Event Time Altitude Azimuth Distance (km) Brightness Sun altitude
Rises 04:26:17 0° 301° (WNW) 4,636 - -16.8°
Reaches altitude 10° 04:29:23 10° 305° (NW) 3,653 - -16.2°
Exits shadow 04:31:07 17° 309° (NW) 3,122 8.6 -15.9°
Maximum altitude 04:38:25 60° 25° (NNE) 1,704 7.8 -14.5°
Drops below altitude 10° 04:47:38 10° 104° (ESE) 3,721 11.0 -12.7°
Sets 04:50:49 0° 108° (ESE) 4,726 12.3 -12.1°
